CBJ5368 ZBAD-ZSHC

Flight info

Callsign CBJ5368
Flight time 1h 48m
Altitude 37100
Route ELKUR4K ELKUR W40 YQG W142 DALIM A593 DPX A470 OF W95 SAPIN A470 IGRAT IGRAT91
Aircraft A20N/M-SDE2E3FGHIRWXY/LB1

Departure

Time 2026-04-28 17:42
Airport Beijing Daxing International Airport (ZBAD)

Arrival

Time 2026-04-28 19:30
Airport Hangzhou Xiaoshan International Airport (ZSHC)
Time Latitude Longitude Altitude Speed Heading
2026-04-28 17:13 39.50426 116.41301 90 ft 0 kts 336°
2026-04-28 17:31 39.50422 116.41303 90 ft 2 kts 336°
2026-04-28 17:31 39.50394 116.41318 90 ft 2 kts 336°
2026-04-28 17:32 39.50367 116.41334 90 ft 2 kts 336°
2026-04-28 17:32 39.50353 116.41342 90 ft 2 kts 336°
2026-04-28 17:32 39.50340 116.41349 90 ft 2 kts 336°
2026-04-28 17:32 39.50328 116.41356 90 ft 0 kts 336°
2026-04-28 17:33 39.50322 116.41360 90 ft 1 kts 300°
2026-04-28 17:33 39.50321 116.41366 90 ft 1 kts 255°
2026-04-28 17:33 39.50322 116.41373 90 ft 0 kts 263°
2026-04-28 17:35 39.50319 116.41333 90 ft 11 kts 263°
2026-04-28 17:35 39.50307 116.41193 90 ft 16 kts 263°
2026-04-28 17:35 39.50292 116.41046 90 ft 16 kts 262°
2026-04-28 17:35 39.50257 116.40923 90 ft 13 kts 207°
2026-04-28 17:36 39.50163 116.40923 90 ft 14 kts 175°
2026-04-28 17:36 39.50064 116.40942 90 ft 14 kts 174°
2026-04-28 17:36 39.49993 116.40875 90 ft 14 kts 257°
2026-04-28 17:36 39.49981 116.40755 90 ft 14 kts 262°
2026-04-28 17:37 39.49969 116.40623 90 ft 14 kts 263°
2026-04-28 17:37 39.49956 116.40488 90 ft 15 kts 262°
2026-04-28 17:37 39.49943 116.40352 90 ft 15 kts 263°
2026-04-28 17:37 39.49931 116.40215 90 ft 15 kts 263°
2026-04-28 17:38 39.49857 116.40140 90 ft 17 kts 174°
2026-04-28 17:38 39.49716 116.40162 90 ft 21 kts 173°
2026-04-28 17:38 39.49570 116.40183 90 ft 20 kts 170°
2026-04-28 17:38 39.49428 116.40207 90 ft 20 kts 173°
2026-04-28 17:39 39.49287 116.40226 90 ft 20 kts 173°
2026-04-28 17:39 39.49152 116.40251 90 ft 19 kts 173°
2026-04-28 17:39 39.48884 116.40293 90 ft 19 kts 173°
2026-04-28 17:40 39.48753 116.40314 90 ft 18 kts 173°
2026-04-28 17:40 39.48623 116.40334 90 ft 18 kts 173°
2026-04-28 17:40 39.48493 116.40356 90 ft 18 kts 172°
2026-04-28 17:40 39.48416 116.40260 90 ft 17 kts 270°
2026-04-28 17:41 39.48483 116.40139 90 ft 17 kts 338°
2026-04-28 17:41 39.48599 116.40115 90 ft 17 kts 352°
2026-04-28 17:41 39.48849 116.40075 90 ft 72 kts 353°
2026-04-28 17:41 39.49597 116.39958 90 ft 141 kts 353°
2026-04-28 17:42 39.50768 116.39784 233 ft 184 kts 353°
2026-04-28 17:42 39.51634 116.39661 577 ft 194 kts 352°
2026-04-28 17:42 39.53370 116.39368 1944 ft 186 kts 351°
2026-04-28 17:42 39.54679 116.39135 2662 ft 198 kts 351°
2026-04-28 17:43 39.56094 116.38887 3191 ft 215 kts 352°
2026-04-28 17:43 39.57628 116.38638 3716 ft 233 kts 352°
2026-04-28 17:43 39.59302 116.38372 4285 ft 249 kts 353°
2026-04-28 17:43 39.61027 116.38100 4747 ft 253 kts 353°
2026-04-28 17:44 39.62781 116.37824 4901 ft 253 kts 353°
2026-04-28 17:44 39.64471 116.37559 4900 ft 253 kts 354°
2026-04-28 17:44 39.66213 116.37711 4886 ft 255 kts 19°
2026-04-28 17:44 39.67698 116.38950 4899 ft 259 kts 45°
2026-04-28 17:45 39.68586 116.40981 4904 ft 265 kts 73°
2026-04-28 17:45 39.68853 116.43386 4911 ft 267 kts 81°
2026-04-28 17:45 39.69042 116.45785 4900 ft 267 kts 81°
2026-04-28 17:45 39.69237 116.48171 4906 ft 268 kts 81°
2026-04-28 17:46 39.69269 116.50619 4894 ft 271 kts 101°
2026-04-28 17:46 39.68408 116.52786 4904 ft 277 kts 132°
2026-04-28 17:46 39.66800 116.54142 4902 ft 279 kts 163°
2026-04-28 17:46 39.64891 116.54527 4913 ft 279 kts 175°
2026-04-28 17:47 39.62946 116.54748 4910 ft 279 kts 175°
2026-04-28 17:47 39.61021 116.54990 4908 ft 278 kts 174°
2026-04-28 17:47 39.59093 116.55260 4909 ft 278 kts 173°
2026-04-28 17:47 39.57819 116.55516 4902 ft 278 kts 164°
2026-04-28 17:48 39.55774 116.57411 4903 ft 274 kts 122°
2026-04-28 17:48 39.54777 116.59521 4906 ft 274 kts 118°
2026-04-28 17:48 39.53801 116.61627 4906 ft 274 kts 119°
2026-04-28 17:48 39.52797 116.63728 4906 ft 275 kts 120°
2026-04-28 17:49 39.51817 116.65732 4904 ft 275 kts 121°
2026-04-28 17:49 39.50779 116.67831 4905 ft 275 kts 121°
2026-04-28 17:49 39.49789 116.69823 4912 ft 277 kts 121°
2026-04-28 17:49 39.48738 116.71935 5303 ft 285 kts 121°
2026-04-28 17:50 39.47677 116.74060 6301 ft 282 kts 121°
2026-04-28 17:50 39.46616 116.76156 7235 ft 283 kts 124°
2026-04-28 17:50 39.45197 116.77943 8037 ft 290 kts 147°
2026-04-28 17:50 39.43769 116.78851 8673 ft 294 kts 158°
2026-04-28 17:51 39.41874 116.79790 9466 ft 298 kts 159°
2026-04-28 17:51 39.39923 116.80720 10258 ft 301 kts 159°
2026-04-28 17:51 39.37931 116.81688 10877 ft 311 kts 158°
2026-04-28 17:51 39.35855 116.82721 11250 ft 329 kts 158°
2026-04-28 17:52 39.33662 116.83829 11583 ft 347 kts 158°
2026-04-28 17:52 39.31361 116.84995 11904 ft 364 kts 158°
2026-04-28 17:52 39.26531 116.87436 13082 ft 378 kts 157°
2026-04-28 17:53 39.24069 116.88679 13770 ft 381 kts 157°
2026-04-28 17:53 39.21608 116.89922 14470 ft 384 kts 157°
2026-04-28 17:53 39.19124 116.91174 15141 ft 387 kts 157°
2026-04-28 17:53 39.16605 116.92444 15787 ft 391 kts 156°
2026-04-28 17:54 39.14111 116.93701 16399 ft 395 kts 156°
2026-04-28 17:54 39.11538 116.94996 16994 ft 399 kts 156°
2026-04-28 17:54 39.08949 116.96298 17630 ft 402 kts 156°
2026-04-28 17:54 39.06350 116.97605 18245 ft 404 kts 156°
2026-04-28 17:55 39.03718 116.98928 18842 ft 407 kts 156°
2026-04-28 17:55 39.01069 117.00260 19403 ft 411 kts 156°
2026-04-28 17:55 38.98401 117.01602 19942 ft 414 kts 156°
2026-04-28 17:55 38.95711 117.02955 20508 ft 417 kts 156°
2026-04-28 17:56 38.93018 117.04303 21023 ft 420 kts 156°
2026-04-28 17:56 38.90276 117.05679 21503 ft 424 kts 156°
2026-04-28 17:56 38.87463 117.06850 21894 ft 432 kts 169°
2026-04-28 17:56 38.84448 117.06834 22288 ft 437 kts 191°
2026-04-28 17:57 38.81622 117.05490 22757 ft 438 kts 212°
2026-04-28 17:57 38.79448 117.03200 23206 ft 434 kts 232°
2026-04-28 17:57 38.77813 116.99960 23690 ft 431 kts 245°
2026-04-28 17:57 38.76450 116.96541 24094 ft 432 kts 246°
2026-04-28 17:58 38.75090 116.93133 24547 ft 432 kts 246°
2026-04-28 17:58 38.73756 116.89858 25053 ft 429 kts 245°
2026-04-28 17:58 38.72366 116.86502 25647 ft 423 kts 245°
2026-04-28 17:58 38.71001 116.83233 26261 ft 417 kts 245°
2026-04-28 17:59 38.69636 116.79989 26853 ft 410 kts 245°
2026-04-28 17:59 38.68315 116.76848 27493 ft 401 kts 246°
2026-04-28 17:59 38.67004 116.73749 28002 ft 397 kts 246°
2026-04-28 17:59 38.65415 116.70828 28463 ft 400 kts 233°
2026-04-28 18:00 38.63319 116.68510 28916 ft 407 kts 222°
2026-04-28 18:00 38.60773 116.66828 29396 ft 416 kts 210°
2026-04-28 18:00 38.57907 116.65922 29863 ft 431 kts 199°
2026-04-28 18:00 38.54940 116.65548 30537 ft 424 kts 198°
2026-04-28 18:01 38.52069 116.65208 31270 ft 413 kts 199°
2026-04-28 18:01 38.49219 116.64869 31768 ft 408 kts 199°
2026-04-28 18:01 38.46419 116.64530 32191 ft 405 kts 199°
2026-04-28 18:01 38.43612 116.64195 32503 ft 404 kts 200°
2026-04-28 18:02 38.40828 116.63870 32862 ft 401 kts 200°
2026-04-28 18:02 38.38060 116.63560 33257 ft 399 kts 199°
2026-04-28 18:02 38.35295 116.63403 33617 ft 401 kts 197°
2026-04-28 18:02 38.32469 116.63432 33921 ft 404 kts 193°
2026-04-28 18:03 38.29647 116.63654 34378 ft 407 kts 191°
2026-04-28 18:03 38.26839 116.64067 34828 ft 408 kts 188°
2026-04-28 18:03 38.24039 116.64678 35280 ft 409 kts 185°
2026-04-28 18:03 38.21246 116.65481 35724 ft 410 kts 181°
2026-04-28 18:04 38.18492 116.66461 36012 ft 413 kts 180°
2026-04-28 18:04 38.15695 116.67497 36176 ft 415 kts 180°
2026-04-28 18:04 38.12937 116.68516 36328 ft 415 kts 179°
2026-04-28 18:04 38.10161 116.69546 36519 ft 416 kts 179°
2026-04-28 18:05 38.07370 116.70603 36665 ft 418 kts 179°
2026-04-28 18:05 38.05513 116.71313 36733 ft 420 kts 179°
2026-04-28 18:05 38.01777 116.72740 36912 ft 421 kts 179°
2026-04-28 18:05 37.98943 116.73822 37032 ft 423 kts 179°
2026-04-28 18:06 37.93295 116.75970 37270 ft 425 kts 179°
2026-04-28 18:06 37.87577 116.78142 37320 ft 425 kts 179°
2026-04-28 18:07 37.81921 116.80294 37325 ft 424 kts 179°
2026-04-28 18:07 37.76260 116.82436 37318 ft 424 kts 179°
2026-04-28 18:08 37.70571 116.84579 37325 ft 428 kts 179°
2026-04-28 18:08 37.64910 116.86719 37323 ft 426 kts 179°
2026-04-28 18:09 37.59226 116.88862 37323 ft 427 kts 178°
2026-04-28 18:09 37.53553 116.90997 37325 ft 424 kts 179°
2026-04-28 18:10 37.47884 116.93128 37322 ft 422 kts 179°
2026-04-28 18:10 37.42261 116.95236 37323 ft 423 kts 179°
2026-04-28 18:11 37.36597 116.97353 37323 ft 425 kts 179°
2026-04-28 18:11 37.30990 116.99459 37318 ft 421 kts 178°
2026-04-28 18:12 37.28183 117.00631 37194 ft 429 kts 175°
2026-04-28 18:12 37.25366 117.01947 37388 ft 432 kts 174°
2026-04-28 18:12 37.22587 117.03255 37194 ft 430 kts 174°
2026-04-28 18:12 37.19778 117.04576 37289 ft 430 kts 174°
2026-04-28 18:13 37.16994 117.05878 37449 ft 429 kts 174°
2026-04-28 18:13 37.14177 117.07197 37377 ft 426 kts 174°
2026-04-28 18:13 37.11403 117.08495 37209 ft 426 kts 175°
2026-04-28 18:13 37.08639 117.09782 37341 ft 426 kts 175°
2026-04-28 18:14 37.03091 117.12368 37323 ft 424 kts 175°
2026-04-28 18:14 36.97677 117.14888 37326 ft 425 kts 175°
2026-04-28 18:15 36.92168 117.17449 37324 ft 423 kts 175°
2026-04-28 18:15 36.86641 117.19621 37319 ft 410 kts 181°
2026-04-28 18:16 36.81090 117.20956 37326 ft 402 kts 187°
2026-04-28 18:16 36.75533 117.21499 37319 ft 398 kts 193°
2026-04-28 18:17 36.70015 117.21487 37323 ft 401 kts 193°
2026-04-28 18:17 36.64415 117.21463 37321 ft 401 kts 193°
2026-04-28 18:18 36.58806 117.21433 37319 ft 402 kts 193°
2026-04-28 18:18 36.54118 117.21403 37320 ft 401 kts 193°
2026-04-28 18:19 36.47613 117.21447 37316 ft 406 kts 191°
2026-04-28 18:19 36.41950 117.22098 37322 ft 409 kts 185°
2026-04-28 18:20 36.36349 117.23447 37317 ft 412 kts 180°
2026-04-28 18:20 36.30862 117.25399 37320 ft 409 kts 178°
2026-04-28 18:21 36.25383 117.27421 37320 ft 408 kts 178°
2026-04-28 18:21 36.19963 117.29421 37321 ft 409 kts 178°
2026-04-28 18:22 36.14505 117.31442 37320 ft 408 kts 178°
2026-04-28 18:22 36.09068 117.33455 37324 ft 408 kts 177°
2026-04-28 18:23 36.03629 117.35464 37320 ft 408 kts 178°
2026-04-28 18:23 35.98184 117.37477 37318 ft 409 kts 177°
2026-04-28 18:24 35.93639 117.39179 37317 ft 408 kts 177°
2026-04-28 18:24 35.87329 117.41544 37318 ft 408 kts 177°
2026-04-28 18:25 35.81878 117.43583 37317 ft 408 kts 177°
2026-04-28 18:26 35.73710 117.46629 37314 ft 408 kts 177°
2026-04-28 18:26 35.68282 117.48649 37312 ft 408 kts 177°
2026-04-28 18:27 35.62872 117.50661 37312 ft 408 kts 177°
2026-04-28 18:27 35.57438 117.52678 37314 ft 407 kts 177°
2026-04-28 18:28 35.52011 117.54693 37306 ft 408 kts 177°
2026-04-28 18:28 35.46590 117.56697 37309 ft 408 kts 177°
2026-04-28 18:29 35.41137 117.58714 37306 ft 408 kts 176°
2026-04-28 18:29 35.35735 117.60711 37304 ft 408 kts 177°
2026-04-28 18:30 35.30317 117.62708 37305 ft 407 kts 177°
2026-04-28 18:30 35.24844 117.64722 37303 ft 408 kts 177°
2026-04-28 18:31 35.19431 117.66715 37302 ft 408 kts 177°
2026-04-28 18:31 35.13967 117.68722 37301 ft 407 kts 177°
2026-04-28 18:32 35.08557 117.70708 37303 ft 408 kts 178°
2026-04-28 18:32 35.03129 117.72693 37301 ft 407 kts 177°
2026-04-28 18:33 34.97678 117.74690 37301 ft 408 kts 178°
2026-04-28 18:33 34.92270 117.76668 37298 ft 407 kts 177°
2026-04-28 18:34 34.86845 117.78651 37298 ft 408 kts 177°
2026-04-28 18:34 34.81378 117.80650 37304 ft 407 kts 177°
2026-04-28 18:35 34.76117 117.82552 37308 ft 407 kts 177°
2026-04-28 18:35 34.70646 117.84515 37310 ft 408 kts 177°
2026-04-28 18:36 34.65213 117.86468 37313 ft 408 kts 177°
2026-04-28 18:36 34.59761 117.88425 37315 ft 408 kts 176°
2026-04-28 18:37 34.54289 117.90387 37316 ft 408 kts 176°
2026-04-28 18:37 34.48853 117.92335 37312 ft 409 kts 176°
2026-04-28 18:38 34.43406 117.94284 37312 ft 408 kts 176°
2026-04-28 18:38 34.37951 117.96234 37319 ft 409 kts 176°
2026-04-28 18:39 34.32507 117.98174 37321 ft 408 kts 176°
2026-04-28 18:39 34.27072 118.00112 37320 ft 408 kts 176°
2026-04-28 18:40 34.21627 118.02091 37322 ft 409 kts 175°
2026-04-28 18:40 34.16141 118.04098 37321 ft 409 kts 175°
2026-04-28 18:41 34.10694 118.06080 37318 ft 410 kts 175°
2026-04-28 18:41 34.05219 118.08070 37319 ft 410 kts 176°
2026-04-28 18:42 33.99766 118.10047 37317 ft 410 kts 175°
2026-04-28 18:42 33.94317 118.12031 37320 ft 410 kts 175°
2026-04-28 18:43 33.88868 118.14014 37322 ft 409 kts 175°
2026-04-28 18:43 33.83384 118.16011 37312 ft 409 kts 175°
2026-04-28 18:44 33.77957 118.17978 37315 ft 410 kts 175°
2026-04-28 18:44 33.69756 118.20966 37310 ft 410 kts 175°
2026-04-28 18:45 33.64310 118.22948 37306 ft 410 kts 175°
2026-04-28 18:45 33.58819 118.24940 37311 ft 411 kts 175°
2026-04-28 18:46 33.53351 118.26921 37304 ft 411 kts 175°
2026-04-28 18:46 33.47903 118.28896 37305 ft 411 kts 175°
2026-04-28 18:47 33.42430 118.30875 37306 ft 411 kts 174°
2026-04-28 18:47 33.36943 118.32861 37304 ft 411 kts 175°
2026-04-28 18:48 33.31464 118.34836 37300 ft 412 kts 175°
2026-04-28 18:48 33.25977 118.36815 37302 ft 412 kts 175°
2026-04-28 18:49 33.21408 118.38461 37301 ft 412 kts 175°
2026-04-28 18:49 33.15019 118.40759 37302 ft 411 kts 175°
2026-04-28 18:50 33.09549 118.42728 37304 ft 411 kts 175°
2026-04-28 18:50 33.04045 118.44706 37297 ft 411 kts 175°
2026-04-28 18:51 32.98557 118.46675 37298 ft 412 kts 175°
2026-04-28 18:51 32.93081 118.48637 37295 ft 413 kts 175°
2026-04-28 18:52 32.87562 118.50616 37295 ft 412 kts 174°
2026-04-28 18:52 32.82041 118.52591 37293 ft 413 kts 174°
2026-04-28 18:53 32.76535 118.54557 37295 ft 412 kts 174°
2026-04-28 18:53 32.71014 118.56529 37290 ft 413 kts 174°
2026-04-28 18:54 32.65498 118.58477 37292 ft 412 kts 175°
2026-04-28 18:54 32.59976 118.60349 37288 ft 413 kts 175°
2026-04-28 18:55 32.55396 118.61902 37286 ft 412 kts 175°
2026-04-28 18:55 32.48952 118.64085 37288 ft 413 kts 175°
2026-04-28 18:56 32.43417 118.65961 37283 ft 413 kts 175°
2026-04-28 18:56 32.37886 118.67834 37285 ft 413 kts 176°
2026-04-28 18:57 32.32368 118.69703 37286 ft 413 kts 175°
2026-04-28 18:57 32.26818 118.71571 37286 ft 413 kts 175°
2026-04-28 18:58 32.21279 118.73429 37283 ft 413 kts 175°
2026-04-28 18:58 32.15766 118.75275 37280 ft 414 kts 175°
2026-04-28 18:59 32.10217 118.77131 37281 ft 414 kts 175°
2026-04-28 18:59 32.04651 118.78989 37284 ft 414 kts 175°
2026-04-28 19:00 31.99120 118.80838 37286 ft 414 kts 175°
2026-04-28 19:00 31.93550 118.82628 37282 ft 414 kts 175°
2026-04-28 19:01 31.87989 118.84399 37293 ft 414 kts 175°
2026-04-28 19:01 31.82419 118.86271 37289 ft 419 kts 171°
2026-04-28 19:02 31.77014 118.89091 37294 ft 430 kts 162°
2026-04-28 19:02 31.71924 118.92884 37296 ft 442 kts 154°
2026-04-28 19:03 31.67072 118.97366 37164 ft 443 kts 153°
2026-04-28 19:03 31.64615 118.99537 36743 ft 443 kts 153°
2026-04-28 19:03 31.62148 119.01739 36112 ft 443 kts 153°
2026-04-28 19:04 31.59681 119.03906 35359 ft 443 kts 154°
2026-04-28 19:04 31.57224 119.06052 34573 ft 445 kts 153°
2026-04-28 19:04 31.54756 119.08212 33804 ft 446 kts 152°
2026-04-28 19:04 31.52248 119.10412 33076 ft 446 kts 152°
2026-04-28 19:05 31.49775 119.12582 32425 ft 446 kts 151°
2026-04-28 19:05 31.47265 119.14786 31689 ft 448 kts 152°
2026-04-28 19:05 31.44776 119.16962 30996 ft 448 kts 152°
2026-04-28 19:05 31.42293 119.19125 30283 ft 450 kts 152°
2026-04-28 19:06 31.39760 119.21334 29554 ft 450 kts 151°
2026-04-28 19:06 31.38117 119.22765 29088 ft 451 kts 151°
2026-04-28 19:06 31.34760 119.25693 28070 ft 455 kts 151°
2026-04-28 19:06 31.32209 119.27911 27288 ft 458 kts 150°
2026-04-28 19:07 31.29671 119.30126 26752 ft 454 kts 150°
2026-04-28 19:07 31.27155 119.32327 26250 ft 450 kts 150°
2026-04-28 19:07 31.24649 119.34508 25720 ft 446 kts 150°
2026-04-28 19:07 31.22182 119.36653 25191 ft 443 kts 150°
2026-04-28 19:08 31.19719 119.38788 24674 ft 439 kts 150°
2026-04-28 19:08 31.17266 119.40924 24149 ft 437 kts 150°
2026-04-28 19:08 31.14825 119.43056 23667 ft 433 kts 149°
2026-04-28 19:08 31.12420 119.45162 23181 ft 431 kts 149°
2026-04-28 19:09 31.10041 119.47240 22678 ft 429 kts 150°
2026-04-28 19:09 31.07654 119.49324 22171 ft 427 kts 150°
2026-04-28 19:09 31.05269 119.51405 21672 ft 426 kts 149°
2026-04-28 19:09 31.02902 119.53471 21158 ft 424 kts 149°
2026-04-28 19:10 31.00553 119.55515 20651 ft 422 kts 149°
2026-04-28 19:10 30.98209 119.57557 20141 ft 419 kts 149°
2026-04-28 19:10 30.95892 119.59575 19649 ft 416 kts 148°
2026-04-28 19:10 30.93587 119.61578 19151 ft 412 kts 148°
2026-04-28 19:11 30.91276 119.63588 18649 ft 408 kts 149°
2026-04-28 19:11 30.89020 119.65547 18156 ft 405 kts 149°
2026-04-28 19:11 30.86767 119.67505 17655 ft 401 kts 148°
2026-04-28 19:11 30.84537 119.69443 17166 ft 397 kts 149°
2026-04-28 19:12 30.82324 119.71362 16674 ft 394 kts 149°
2026-04-28 19:12 30.80120 119.73270 16149 ft 392 kts 149°
2026-04-28 19:12 30.77954 119.75145 15649 ft 389 kts 149°
2026-04-28 19:12 30.75805 119.77007 15145 ft 385 kts 149°
2026-04-28 19:13 30.73663 119.78860 14643 ft 382 kts 149°
2026-04-28 19:13 30.71533 119.80705 14140 ft 379 kts 148°
2026-04-28 19:13 30.69469 119.82552 13641 ft 377 kts 148°
2026-04-28 19:13 30.67420 119.84430 13174 ft 374 kts 147°
2026-04-28 19:14 30.65375 119.86275 12673 ft 368 kts 148°
2026-04-28 19:14 30.63269 119.87922 12208 ft 362 kts 153°
2026-04-28 19:14 30.61125 119.89352 11744 ft 356 kts 155°
2026-04-28 19:14 30.58943 119.90743 11264 ft 351 kts 155°
2026-04-28 19:15 30.56819 119.92091 10786 ft 346 kts 154°
2026-04-28 19:15 30.54739 119.93417 10501 ft 333 kts 154°
2026-04-28 19:15 30.52758 119.94677 10355 ft 319 kts 155°
2026-04-28 19:15 30.51484 119.95488 10244 ft 310 kts 155°
2026-04-28 19:16 30.49022 119.97053 10047 ft 293 kts 155°
2026-04-28 19:16 30.47258 119.98169 9919 ft 282 kts 156°
2026-04-28 19:16 30.45553 119.99241 9598 ft 278 kts 154°
2026-04-28 19:16 30.43866 120.00308 9260 ft 273 kts 156°
2026-04-28 19:17 30.42203 120.01360 8955 ft 267 kts 153°
2026-04-28 19:17 30.40591 120.02374 8621 ft 265 kts 152°
2026-04-28 19:17 30.38950 120.03406 8256 ft 264 kts 151°
2026-04-28 19:17 30.37347 120.04417 7934 ft 262 kts 151°
2026-04-28 19:18 30.35818 120.05388 7885 ft 263 kts 151°
2026-04-28 19:18 30.34509 120.06216 7866 ft 265 kts 150°
2026-04-28 19:18 30.32840 120.07280 7851 ft 264 kts 150°
2026-04-28 19:18 30.31234 120.08298 7852 ft 263 kts 150°
2026-04-28 19:19 30.29605 120.09326 7852 ft 264 kts 150°
2026-04-28 19:19 30.28005 120.10339 7846 ft 264 kts 151°
2026-04-28 19:19 30.26392 120.11358 7820 ft 261 kts 151°
2026-04-28 19:19 30.24778 120.12372 7473 ft 259 kts 150°
2026-04-28 19:20 30.23216 120.13326 7162 ft 251 kts 154°
2026-04-28 19:20 30.21504 120.13654 7106 ft 248 kts 184°
2026-04-28 19:20 30.19927 120.12981 7038 ft 242 kts 211°
2026-04-28 19:20 30.18781 120.11533 6742 ft 248 kts 237°
2026-04-28 19:21 30.17973 120.09738 6411 ft 249 kts 240°
2026-04-28 19:21 30.17199 120.07948 6173 ft 250 kts 237°
2026-04-28 19:21 30.16052 120.06490 6107 ft 241 kts 200°
2026-04-28 19:21 30.14450 120.06155 5992 ft 229 kts 162°
2026-04-28 19:22 30.13083 120.06901 5788 ft 216 kts 140°
2026-04-28 19:22 30.12244 120.07538 5567 ft 217 kts 142°
2026-04-28 19:22 30.10502 120.08717 5228 ft 215 kts 142°
2026-04-28 19:22 30.09455 120.09858 4995 ft 200 kts 111°
2026-04-28 19:23 30.09208 120.11359 4724 ft 191 kts 83°
2026-04-28 19:23 30.09478 120.12830 4480 ft 186 kts 69°
2026-04-28 19:23 30.09980 120.14203 4240 ft 183 kts 64°
2026-04-28 19:23 30.10560 120.15492 4030 ft 179 kts 62°
2026-04-28 19:24 30.11140 120.16753 3783 ft 177 kts 62°
2026-04-28 19:24 30.11708 120.18005 3531 ft 175 kts 62°
2026-04-28 19:24 30.12268 120.19254 3287 ft 172 kts 61°
2026-04-28 19:24 30.12810 120.20476 3194 ft 172 kts 62°
2026-04-28 19:25 30.13356 120.21712 3204 ft 173 kts 61°
2026-04-28 19:25 30.13873 120.22890 3317 ft 154 kts 62°
2026-04-28 19:25 30.14330 120.23935 3284 ft 140 kts 62°
2026-04-28 19:25 30.14770 120.24934 3224 ft 139 kts 62°
2026-04-28 19:26 30.15208 120.25930 3046 ft 138 kts 62°
2026-04-28 19:26 30.15642 120.26915 2860 ft 137 kts 62°
2026-04-28 19:26 30.16072 120.27893 2668 ft 137 kts 61°
2026-04-28 19:26 30.16506 120.28877 2517 ft 136 kts 61°
2026-04-28 19:27 30.16938 120.29857 2343 ft 136 kts 60°
2026-04-28 19:27 30.17364 120.30821 2147 ft 134 kts 60°
2026-04-28 19:27 30.17791 120.31788 1958 ft 134 kts 60°
2026-04-28 19:27 30.18214 120.32749 1766 ft 133 kts 59°
2026-04-28 19:28 30.18638 120.33707 1587 ft 133 kts 59°
2026-04-28 19:28 30.19056 120.34654 1408 ft 133 kts 60°
2026-04-28 19:28 30.19480 120.35611 1233 ft 132 kts 60°
2026-04-28 19:28 30.19898 120.36556 1057 ft 132 kts 60°
2026-04-28 19:29 30.20316 120.37501 884 ft 132 kts 60°
2026-04-28 19:29 30.20594 120.38129 766 ft 131 kts 60°
2026-04-28 19:29 30.21147 120.39375 532 ft 131 kts 60°
2026-04-28 19:29 30.21558 120.40303 355 ft 130 kts 60°
2026-04-28 19:30 30.21969 120.41232 163 ft 127 kts 60°
2026-04-28 19:30 30.22375 120.42138 42 ft 122 kts 62°
2026-04-28 19:30 30.22631 120.42723 38 ft 38 kts 63°
2026-04-28 19:30 30.22658 120.42786 38 ft 0 kts 62°
2026-04-28 19:31 30.22714 120.42904 38 ft 38 kts 64°
2026-04-28 19:31 30.22825 120.43154 38 ft 25 kts 61°
2026-04-28 19:31 30.22908 120.43327 38 ft 24 kts 59°
2026-04-28 19:31 30.22979 120.43495 39 ft 22 kts 68°
2026-04-28 19:32 30.23064 120.43639 39 ft 21 kts 44°
2026-04-28 19:32 30.23179 120.43742 39 ft 20 kts 35°
2026-04-28 19:32 30.23294 120.43836 39 ft 19 kts 36°
2026-04-28 19:32 30.23407 120.43835 39 ft 17 kts 334°
2026-04-28 19:33 30.23515 120.43773 40 ft 15 kts 333°
2026-04-28 19:33 30.23562 120.43671 40 ft 14 kts 284°
2026-04-28 19:33 30.23547 120.43578 40 ft 10 kts 243°
2026-04-28 19:33 30.23539 120.43559 40 ft 0 kts 242°